Wind_Speed
20 18 22 25 23 22 18 17 17 17 15 14 12 10 7 6 6 2 1 0 5 1 3 1 2 3 1 4 4 6 5 5 4 4 4 5 3 4 7 1 9 7 6 5 7 6 5 23 12 7 5 11 10 11
17 19 23 30 25 20 18 15 18 17 16 12 14 12 8 6 6 5 1 3 1 3 3 10 9 9 9 10 6 5 5 5 5 4 5 3 6 4 8 3 7 2 4 3 6 3 7 12 12 10 10 10 11 10
19 21 24 24 22 18 16 18 18 16 14 14 13 11 10 7 7 8 2 4 2 2 5 7 6 9 8 8 7 4 3 5 3 2 2 3 5 5 5 3 6 10 14 4 3 8 11 12 12 12 12 11 11 12
18 22 23 23 21 18 16 19 16 16 15 14 14 13 10 8 7 8 6 3 3 3 2 1 2 6 4 5 8 8 8 8 7 5 4 3 4 6 5 7 4 6 7 9 4 5 6 13 11 10 10 10 11 11
15 20 24 25 21 18 19 19 15 15 15 15 14 11 10 8 8 5 6 5 5 3 4 5 13 9 10 5 4 6 6 5 4 3 3 6 5 5 5 2 5 6 5 4 3 8 4 7 8 11 12 11 7 10
13 16 22 22 22 20 20 18 17 18 17 16 14 11 9 8 7 3 2 6 10 4 2 3 4 5 8 7 8 7 6 2 1 2 4 4 9 3 3 3 5 7 8 7 3 6 9 8 9 10 10 9 10 10
14 15 15 19 23 21 19 19 19 16 19 16 13 11 9 8 8 3 1 4 4 8 0 4 3 2 8 6 7 3 5 2 2 3 4 8 9 3 2 2 6 7 7 5 5 3 7 9 6 6 7 9 10 12
17 17 15 24 29 23 20 21 19 18 18 15 13 9 7 7 5 6 9 3 6 4 1 3 4 2 8 4 4 4 3 2 4 4 5 6 5 2 1 4 4 5 6 7 7 7 8 5 5 6 6 7 9 9
18 19 16 30 24 21 20 20 20 17 18 15 10 8 5 5 3 3 5 7 11 4 2 4 3 2 2 3 2 3 4 4 4 5 3 3 2 1 5 6 4 5 4 4 4 4 6 5 5 7 7 8 9 9
19 22 24 24 26 23 21 21 20 19 16 15 9 3 2 6 11 12 6 2 2 3 4 4 5 4 4 2 3 2 3 3 3 5 2 2 2 6 6 5 5 5 4 3 4 4 4 5 7 10 10 9 11 10
20 24 25 27 29 26 21 21 21 20 17 6 3 2 3 22 6 3 3 5 5 4 5 5 8 5 4 3 4 3 2 2 3 4 4 4 3 4 5 6 6 6 7 8 9 9 10 9 7 9 10 13 14 13
21 24 27 27 25 23 22 24 24 19 9 9 5 6 7 2 4 3 4 3 4 4 4 6 5 5 2 3 2 2 3 2 3 1 2 2 4 8 7 7 7 8 10 10 12 11 12 12 12 13 13 12 12 12
22 25 26 24 22 21 24 26 26 15 11 8 4 4 3 4 4 4 7 4 4 4 1 1 1 1 2 1 1 2 2 4 2 3 2 3 8 7 7 7 7 8 9 10 11 13 15 15 14 13 13 12 12 11
26 25 23 22 22 24 25 25 21 16 5 3 5 6 4 5 4 4 5 2 3 2 4 4 2 1 0 2 1 3 2 3 2 3 3 5 8 8 8 6 8 8 9 11 12 12 12 12 13 13 12 10 11 10
25 23 24 25 26 27 25 21 20 9 3 3 4 4 6 1 2 4 2 2 2 2 3 3 2 3 3 2 3 3 3 4 2 3 3 7 10 8 7 7 7 7 7 9 10 10 10 10 11 11 10 9 9 10
24 22 23 27 27 25 22 15 12 6 4 2 2 1 1 2 3 2 2 2 2 1 1 1 2 3 4 2 4 4 3 3 3 4 6 8 8 8 8 7 9 10 11 11 10 10 9 8 10 10 9 8 8 8
26 10 22 27 25 23 23 10 5 4 3 2 2 2 2 2 2 2 0 3 2 1 2 3 4 1 2 2 3 2 3 3 5 5 5 8 8 8 9 10 10 11 11 11 10 9 9 8 9 7 7 5 5 4
15 23 27 28 27 23 10 7 3 5 3 2 3 3 2 2 1 2 2 1 2 2 1 1 2 1 3 2 2 3 3 5 6 6 7 8 12 12 12 12 11 11 11 10 10 8 6 4 3 4 4 4 3 4
18 27 32 32 26 6 3 3 5 3 3 2 2 1 1 1 0 0 1 4 4 4 3 2 2 2 2 3 4 6 6 5 7 7 7 12 12 12 12 12 11 11 10 9 7 4 4 3 5 4 2 2 5 2
20 29 30 26 16 1 4 3 2 3 3 3 2 4 2 2 2 0 2 4 4 2 3 2 2 3 3 2 2 5 5 7 8 8 7 7 11 12 12 11 10 9 8 6 3 2 3 3 2 2 6 7 7 8
20 23 25 19 1 2 1 2 2 2 4 3 2 4 3 3 2 3 2 3 3 1 1 2 4 3 4 6 11 11 11 11 6 7 7 7 12 12 12 10 10 8 6 6 6 5 2 3 3 3 3 3 4 5
11 27 7 4 1 0 2 2 3 4 3 3 5 4 3 2 2 2 1 3 1 2 2 3 6 5 5 6 9 11 9 10 12 16 15 15 5 9 8 9 7 5 4 3 2 2 1 2 3 2 3 2 2 5
19 11 5 4 2 1 2 1 2 4 3 5 3 3 2 2 2 2 3 1 2 3 3 7 10 11 13 12 12 12 12 14 12 12 13 11 11 10 9 7 4 5 3 4 1 1 4 3 1 2 4 4 5 6
9 3 4 4 2 3 2 3 3 3 2 3 4 3 2 2 3 3 3 3 4 6 5 9 12 8 10 12 7 10 11 13 14 11 11 11 9 9 8 7 5 4 4 5 3 2 2 1 1 4 4 4 7 8
5 2 2 3 3 4 5 5 4 3 3 4 4 2 3 3 3 3 3 4 6 5 6 10 9 7 6 6 10 9 12 13 12 9 9 10 11 10 8 6 6 5 2 2 3 3 2 2 2 5 6 7 8 8
2 1 1 3 4 4 5 4 6 5 4 5 4 3 3 3 3 3 2 3 5 6 6 6 6 7 7 12 8 10 10 11 14 10 8 8 8 8 8 7 7 6 3 2 3 3 3 2 3 5 6 7 4 3
4 3 2 1 1 3 2 0 3 2 5 5 4 5 4 4 5 3 2 5 3 11 9 6 8 10 9 13 14 13 11 9 11 14 11 9 8 8 7 3 8 6 4 3 2 2 3 3 2 3 5 5 6 5
2 3 4 4 2 1 3 4 5 5 3 2 4 5 3 2 2 2 3 3 5 11 9 7 5 15 18 17 16 14 12 15 17 17 15 11 8 7 7 7 9 8 3 4 4 4 3 3 3 4 5 5 7 7
2 3 3 4 2 2 3 3 3 3 2 1 2 2 2 3 2 2 3 3 7 11 13 14 15 19 20 17 14 11 13 12 12 8 6 6 8 6 6 7 6 5 4 3 4 3 1 1 1 2 4 5 6 7
3 3 3 3 4 4 2 3 2 3 2 2 2 3 3 3 2 0 2 6 9 10 12 13 14 15 15 15 14 11 9 7 4 3 4 5 9 10 7 6 5 5 4 3 2 1 2 3 4 6 5 7 8 9
3 3 3 3 3 2 3 4 3 2 2 1 0 1 4 3 3 1 3 2 8 17 16 15 13 13 14 14 14 13 9 5 9 10 12 13 13 11 9 8 6 5 4 3 3 3 3 4 5 6 7 8 8 9
4 3 3 4 3 3 3 3 4 4 4 4 3 2 3 5 4 5 4 2 8 11 13 14 14 13 14 16 13 10 14 15 13 14 13 13 11 10 9 7 7 5 4 4 4 4 4 5 6 7 8 9 10 11
2 2 2 3 3 5 4 4 5 4 3 3 5 6 6 3 3 3 4 2 3 14 14 16 18 16 15 16 16 17 17 17 16 16 15 14 13 11 9 7 5 5 5 4 4 4 5 6 6 7 8 10 11 12
Wind_Direction
200 195 191 183 182 187 194 198 198 187 190 187 185 184 186 185 190 204 105 48 11 273 313 23 328 301 248 256 320 332 326 6 330 310 318 10 308 317 290 226 163 180 216 212 219 237 81 355 19 59 349 50 45 59
193 187 190 179 182 192 198 202 186 188 195 196 190 184 187 196 196 200 129 88 354 301 302 320 298 288 292 311 320 325 308 329 23 329 3 325 290 262 2 16 5 67 352 4 36 45 33 49 59 44 46 55 48 73
190 190 192 180 189 196 198 190 187 194 183 175 185 183 180 193 199 192 44 141 196 316 294 238 239 212 229 237 247 275 23 31 29 209 305 300 298 326 349 27 351 355 18 36 199 37 51 40 57 54 53 62 63 65
190 192 188 192 193 186 182 185 184 175 173 182 179 172 177 185 189 193 222 236 277 294 276 297 20 245 239 232 222 235 276 276 297 304 289 276 293 330 319 322 57 356 356 335 91 84 102 49 40 55 67 70 71 72
187 195 194 195 192 190 184 188 193 186 179 176 174 175 176 185 192 206 262 276 274 313 336 311 288 229 221 216 223 220 247 268 309 302 289 289 284 324 307 27 44 7 6 6 22 0 78 44 49 56 54 48 65 88
177 175 183 185 193 191 195 196 190 184 175 175 176 176 174 178 166 170 337 244 226 225 299 301 339 237 221 232 235 226 197 188 200 293 261 258 282 286 299 44 64 35 43 22 48 62 84 85 58 62 74 74 64 65
186 188 188 192 187 188 184 177 174 176 175 175 172 175 178 184 181 190 71 18 179 150 55 277 262 224 237 227 243 242 214 160 223 255 246 256 278 279 277 38 87 62 54 44 17 353 105 41 80 67 83 85 84 82
192 191 195 184 181 184 178 174 169 168 175 172 168 177 178 187 206 245 239 212 142 98 245 266 267 243 181 199 215 167 163 162 219 242 264 260 275 260 85 121 97 91 89 64 48 62 88 117 133 140 119 104 82 73
194 191 178 170 168 178 180 176 171 167 165 163 163 162 172 194 191 201 200 209 209 204 243 232 249 284 190 239 192 182 179 221 230 211 241 264 235 224 78 107 80 49 55 62 62 55 73 65 67 54 55 65 84 84
194 190 182 175 178 180 173 172 167 161 156 145 134 157 200 196 165 143 126 153 182 208 229 248 244 271 183 196 196 221 191 234 232 214 191 207 81 110 96 95 97 83 84 2 244 95 48 79 74 58 55 54 72 84
189 186 187 179 178 179 174 170 164 159 148 152 159 220 157 148 144 188 177 202 190 218 217 234 227 225 177 189 219 225 218 254 253 167 215 198 141 126 129 98 76 60 57 62 69 57 53 63 90 96 78 73 72 72
182 181 177 175 179 182 183 176 167 160 167 177 140 99 136 218 207 185 190 212 215 230 185 180 225 197 192 180 243 262 239 224 253 102 219 209 109 122 123 102 78 66 63 61 62 72 67 71 86 91 88 83 83 84
174 174 174 172 167 165 170 170 171 179 153 142 213 170 214 173 190 216 178 202 214 189 196 108 120 134 196 183 228 289 262 240 144 215 160 60 128 132 128 122 97 85 82 84 75 77 77 72 77 91 93 91 93 88
173 170 169 168 168 164 167 171 172 182 167 217 186 178 244 163 232 196 268 192 49 83 151 139 134 189 81 190 257 247 257 260 246 229 94 129 127 109 90 89 95 81 77 84 83 85 88 89 83 85 93 99 102 94
163 165 167 166 164 167 170 175 179 180 287 251 207 201 204 102 49 38 26 75 85 68 137 112 229 183 188 223 214 285 239 238 355 57 81 117 115 112 106 102 106 108 102 101 106 108 108 106 104 97 91 97 99 97
161 157 166 169 167 169 164 155 171 166 260 256 345 191 65 207 160 201 199 132 125 75 50 245 220 194 209 218 189 228 267 5 70 89 110 118 119 113 114 119 128 127 118 119 121 119 118 113 104 107 103 96 94 89
159 153 167 168 165 161 161 156 136 215 226 232 174 265 324 356 85 106 114 104 94 183 217 214 207 177 105 214 227 10 12 72 116 117 114 119 128 120 120 121 123 129 125 121 123 116 108 120 135 145 113 121 119 105
165 158 162 160 148 145 154 198 192 199 174 176 232 151 211 348 42 127 124 166 208 242 258 314 305 176 227 247 106 116 110 98 99 108 107 107 118 131 140 137 134 129 128 117 115 126 138 180 174 135 124 141 190 191
155 157 159 162 160 165 146 186 233 155 67 113 87 113 134 91 226 322 157 253 248 285 296 246 247 260 74 59 102 110 133 137 126 112 116 128 138 134 133 133 134 132 130 142 152 154 120 34 16 21 9 213 285 293
157 161 168 172 180 222 140 159 218 137 158 143 145 178 126 95 108 115 271 250 218 229 215 238 41 48 36 67 83 133 129 121 129 133 131 128 135 141 143 150 143 144 151 143 122 141 164 185 151 33 13 1 348 355
126 157 156 171 260 281 74 149 111 69 133 159 138 166 118 151 193 193 225 206 230 244 130 69 95 78 46 77 100 115 128 145 155 152 148 146 158 155 162 154 151 172 169 179 188 158 242 10 52 31 342 347 7 325
129 152 136 183 221 236 79 309 136 147 155 137 173 193 138 182 182 200 215 208 247 83 62 116 124 144 132 124 128 127 129 127 121 124 135 147 154 159 150 152 173 169 149 148 188 140 100 74 61 337 312 1 313 282
135 147 133 153 154 124 128 240 151 169 158 172 170 167 169 190 145 160 232 177 80 106 149 131 147 132 110 112 120 129 135 133 130 130 149 155 150 144 141 152 133 138 173 171 117 127 100 96 61 329 306 295 290 304
118 101 176 171 160 118 173 195 171 150 138 183 177 190 171 165 160 228 248 146 117 146 141 132 132 128 135 146 144 152 144 133 130 132 128 126 129 131 138 141 132 90 47 93 122 129 123 123 309 288 287 302 302 301
163 112 215 132 154 140 164 165 183 157 164 196 183 193 150 178 203 227 243 133 155 162 156 172 164 162 163 148 130 122 138 142 141 139 149 148 135 135 135 125 105 99 112 168 190 202 238 170 303 298 305 316 317 324
129 123 277 143 156 174 167 172 184 181 164 184 187 100 166 200 227 232 96 115 155 158 175 177 173 165 150 143 144 153 146 146 140 134 124 137 156 169 163 168 174 148 96 40 355 320 311 344 346 326 313 304 298 312
174 172 145 7 334 130 100 49 132 169 187 193 153 175 186 219 219 91 115 27 130 147 162 175 178 162 145 142 131 114 92 99 144 125 110 98 76 61 74 91 97 110 100 85 63 30 357 354 336 328 314 307 313 333
73 168 172 173 137 292 171 174 185 195 180 137 160 191 214 309 72 58 56 42 94 128 122 109 128 127 124 120 118 115 109 114 118 113 106 95 84 84 96 105 123 134 125 125 93 61 44 20 351 326 324 330 322 317
135 143 107 145 135 177 207 210 187 71 27 246 241 145 118 63 37 82 149 131 116 116 108 101 96 104 106 112 127 134 137 141 146 155 152 132 141 115 107 103 103 102 97 50 70 78 46 83 337 340 333 318 315 302
147 206 151 150 178 191 106 355 59 93 26 20 90 124 112 109 72 119 166 166 170 165 147 139 138 136 137 142 132 112 94 88 106 162 166 138 117 138 134 122 110 105 96 90 88 354 27 353 314 320 319 328 333 342
134 191 157 164 166 73 96 95 109 137 169 147 275 290 107 119 146 302 37 123 122 129 138 151 152 151 148 149 151 142 131 111 111 108 116 118 123 128 127 124 118 111 101 94 77 48 17 1 352 347 346 343 334 337
197 207 154 178 133 127 167 202 175 194 161 190 170 110 145 188 150 160 175 157 156 161 155 149 144 125 126 125 128 131 148 136 124 120 122 128 127 127 126 121 110 110 99 85 66 46 25 14 357 351 344 340 341 335
124 193 124 130 147 181 178 199 193 178 201 219 182 190 198 207 141 114 173 158 247 151 146 125 121 122 122 126 124 122 130 137 144 146 144 138 132 123 114 109 104 93 82 74 55 35 21 11 1 352 343 342 341 336
Height
716 720 725 730 736 741 746 749 753 757 760 764 767 769 772 773 775 777 777 777 777 774 768 768 768 766 765 766 766 764 763 766 760 760 753 750 753 745 722 701 699 710 714 710 711 704 706 724 700 710 738 736 736 743
714 719 724 730 735 740 744 748 752 756 760 763 767 770 772 774 776 778 778 779 780 778 774 773 772 771 772 772 771 766 767 763 769 769 760 759 753 741 735 716 706 722 720 720 731 734 742 743 745 748 744 745 746 748
714 718 723 729 735 739 743 747 752 755 759 763 767 770 773 775 777 779 780 780 780 780 773 768 765 767 770 772 773 772 765 769 771 775 776 764 756 742 739 735 732 727 719 728 734 748 750 751 751 754 754 754 755 757
713 718 723 729 734 739 743 748 752 756 760 764 767 770 773 776 777 780 781 781 781 779 776 766 765 766 767 769 770 772 772 772 772 768 769 767 761 746 740 738 740 747 738 743 748 752 754 758 759 759 761 762 764 766
713 717 722 728 733 738 743 747 751 756 760 764 768 771 774 776 778 780 781 782 783 785 779 771 767 764 764 766 767 769 770 770 770 770 769 765 752 753 739 737 752 760 764 760 754 764 763 768 768 766 767 767 768 769
712 717 721 727 732 737 742 746 751 756 759 764 768 771 774 776 779 781 783 780 782 784 784 776 763 760 761 763 765 765 767 770 774 774 769 758 749 755 741 747 768 769 768 768 770 771 770 772 773 771 772 775 775 776
712 716 721 725 731 737 741 746 750 755 760 764 768 772 775 777 779 781 781 782 781 783 787 776 760 755 758 760 762 764 765 767 773 770 761 753 746 747 743 749 769 773 773 774 773 772 771 774 775 777 777 776 777 778
711 715 719 723 730 736 741 746 751 755 760 765 769 772 775 777 779 781 781 783 784 787 789 776 762 757 758 757 761 765 765 770 769 764 753 748 743 741 747 768 771 774 776 777 776 775 775 776 775 776 775 776 779 782
710 714 718 722 729 735 741 746 751 756 761 765 769 773 775 777 778 778 780 782 784 789 779 769 760 756 757 756 757 761 762 764 755 757 749 743 743 747 763 768 773 776 776 777 777 777 777 776 776 776 777 779 783 788
708 713 718 724 730 736 741 746 751 757 761 766 770 773 773 773 775 777 781 783 783 781 777 764 753 755 755 756 757 758 758 754 748 743 740 744 747 766 770 773 774 776 778 780 777 779 779 779 782 785 788 789 791 794
707 712 718 723 730 736 741 746 752 758 763 766 769 768 767 771 774 774 773 774 769 765 756 750 750 751 750 757 755 750 750 746 744 738 738 737 748 769 774 776 778 780 780 782 784 786 787 785 787 791 796 799 801 803
707 713 718 724 730 735 741 746 752 758 761 764 764 767 770 771 767 764 761 757 754 747 738 744 745 744 749 749 753 750 745 742 739 736 737 732 768 772 776 781 783 786 787 789 790 792 792 793 794 797 801 804 806 808
708 713 719 725 730 735 741 747 752 757 760 764 763 763 761 758 758 757 756 750 746 739 742 742 746 744 747 746 752 749 749 742 740 739 736 758 771 776 780 784 787 790 792 794 796 798 799 801 802 803 806 809 810 812
708 714 720 726 731 737 742 748 754 757 761 757 754 755 752 753 747 739 737 737 743 743 743 747 751 752 751 753 754 756 744 743 734 728 740 762 774 780 784 787 792 796 798 800 802 804 805 806 807 809 811 812 813 814
711 716 722 728 733 739 745 750 754 757 757 749 744 742 744 743 748 749 748 748 748 752 747 754 753 753 752 755 752 747 743 732 729 740 761 773 781 786 790 794 797 800 802 803 806 808 809 809 811 812 814 814 815 815
713 720 725 729 735 741 747 751 756 759 755 747 746 746 747 745 747 751 752 750 750 754 755 755 750 749 747 741 746 742 733 728 753 767 775 780 785 789 793 797 800 802 804 807 808 809 811 812 813 815 816 816 816 817
715 718 724 731 737 743 747 752 754 755 751 750 749 753 748 746 743 748 750 750 753 754 749 749 741 739 744 739 736 734 744 759 769 774 778 783 788 793 797 800 802 804 806 808 809 811 813 814 814 814 815 817 817 818
716 719 725 732 738 743 749 750 750 748 747 748 747 751 752 752 749 751 752 753 754 749 746 743 739 740 738 731 733 756 766 771 775 779 784 789 794 797 799 801 803 805 807 809 811 813 813 813 812 812 814 815 816 816
717 721 727 732 737 740 743 746 743 741 748 752 753 754 753 754 754 754 753 754 752 749 747 742 741 733 740 750 756 764 769 772 778 784 789 793 796 798 801 803 805 806 808 810 810 810 811 812 812 812 812 813 813 813
720 724 729 734 738 737 737 739 738 738 743 748 750 751 751 751 754 756 755 752 749 747 745 743 747 755 756 760 759 764 769 774 780 786 791 795 798 800 802 803 804 806 808 809 810 811 811 811 812 813 814 814 814 814
724 730 735 738 739 736 735 734 734 737 743 745 748 748 750 753 753 753 752 750 749 745 746 753 760 766 765 765 766 768 772 775 778 781 787 793 797 798 800 802 804 805 806 808 809 811 811 811 812 814 815 815 816 816
725 730 736 739 739 738 737 736 735 739 741 743 746 743 747 751 751 752 750 749 747 752 755 757 762 767 767 768 770 772 774 776 778 782 787 792 794 797 799 801 803 805 806 807 808 809 811 812 813 815 815 815 815 815
728 732 734 737 739 738 742 738 739 738 740 742 741 740 744 747 748 752 748 745 754 757 759 760 763 764 769 772 773 775 777 778 781 785 789 791 794 797 800 802 803 805 806 807 809 810 812 813 814 815 815 815 814 814
725 729 730 730 729 737 740 737 733 735 735 736 736 739 741 745 749 747 740 742 754 758 760 763 765 768 772 774 775 777 778 781 784 788 790 793 796 799 801 803 804 806 807 808 810 811 813 814 814 814 814 814 814 813
724 730 729 731 729 732 733 732 733 733 734 737 736 737 743 747 745 739 736 745 753 757 761 763 765 767 769 771 775 779 781 783 786 789 792 793 796 799 802 804 806 808 810 810 811 811 812 813 814 814 814 813 813 813
715 728 724 720 724 723 724 726 729 730 731 735 735 737 742 741 739 732 737 748 753 756 760 762 763 765 768 772 776 779 782 784 787 790 793 795 797 799 801 804 806 809 810 811 811 811 811 812 813 813 814 813 812 813
718 723 726 728 724 723 727 727 725 728 731 730 734 741 741 738 729 745 752 755 754 757 760 762 763 765 768 773 777 781 784 786 788 792 796 798 799 800 801 802 805 809 810 811 811 812 812 812 812 813 813 813 812 812
721 722 725 729 727 727 724 725 729 726 725 727 731 734 732 730 739 753 756 759 757 759 762 763 765 767 771 776 780 784 788 790 792 795 799 801 803 803 804 804 806 808 809 810 811 811 812 813 813 813 813 813 812 812
724 727 728 731 731 731 728 726 723 732 739 733 731 732 742 755 759 760 761 762 762 763 765 768 771 773 776 780 784 787 790 792 794 796 797 800 804 807 807 807 809 810 810 810 811 812 812 813 813 813 813 812 812 810
727 728 727 733 734 729 736 741 740 745 746 746 746 750 754 760 763 764 763 763 764 765 768 771 774 776 779 782 786 789 791 793 794 795 795 797 801 805 807 808 809 810 811 812 813 813 813 813 813 812 812 811 810 809
729 729 728 727 732 739 744 747 749 749 749 748 750 746 750 760 764 764 763 763 762 764 768 772 775 777 780 784 786 789 793 795 795 796 797 799 803 805 807 809 810 811 812 812 813 813 813 813 812 812 811 811 810 809
730 727 729 730 738 746 747 745 745 744 746 747 747 750 755 754 756 763 765 765 765 766 768 771 774 777 780 782 785 787 789 793 796 798 800 802 804 806 807 808 810 811 812 812 812 813 813 812 812 812 811 810 809 808
732 732 732 735 741 742 743 742 741 741 742 740 741 745 746 744 749 761 764 764 764 765 769 771 775 778 781 784 786 789 791 793 795 798 800 802 804 806 808 810 811 811 812 812 812 813 813 813 812 812 811 810 809 807